Погода в Анкоридже

США     61°09′34″N   149°53′02″W
темп.,
°C
ветер,
м/с
пор.,
м/с
влажн.,
%
обл.,
%
осадки,
мм/ч
давл.,
гПа
погр.,
м
19 апреля, пн
пн1901:00+4ссв459474 0.0 102286
04:00+1ссв459650 0.0 102280
07:000ссв35920 0.0 102174
10:00+4с44810 0.0 102178
13:00+8ссв34711 0.0 1021128
16:00+10ссз226574 0.0 1021224
19:00+9з1180100 0.0 102216
22:00+6зсз0188100 0.0 102319
20 апреля, вт
вт2001:00+3ююз11905 0.0 102515
04:00+2ссв119329 0.0 102610
07:00+2ююв2290100 0.0 102712
10:00+4ююз238645 0.0 1028124
13:00+5ююз2385100 0.0 1029274
16:00+5з218468 0.0 1029406
19:00+4всв018681 0.0 1029377
22:00+3ю2295100 0.0 103059
21 апреля, ср
ср2101:00+4в009382 0.1 103020
04:00+3ссз229518 0.1 102921
07:00+2с348917 0.0 102852
10:00+4с33825 0.0 1028138
13:00+6с12720 0.0 1028288
16:00+7з11690 0.0 1026378
19:00+7всв12730 0.0 1025320
22:00+4ю22820 0.0 102513
22 апреля, чт
чт2201:00+3св01805 0.0 102511
04:00+2ссз227648 0.0 102414
07:00+2с3373100 0.0 102235
10:00+4с236445 0.0 1021124
13:00+8ссв225040 0.0 1020299
16:00+9с124617 0.0 1018391
19:00+8юз215120 0.0 1017211
22:00+5ююв226368 0.0 101814
23 апреля, пт
пт2301:00+4ююв116363 0.0 101810
04:00+3ю116857 0.0 101910
07:00+2ю117267 0.0 101910
10:00+4вюв01695 0.0 1018144
13:00+6зсз026452 0.0 1018343
16:00+6юз116646 0.0 1017399
19:00+6юз11630 0.0 1016162
22:00+5ю22701 0.0 101615